COSMOS 2251 DEB, 40799

Orbit data source: Space-Track

COSMOS 2251 DEB, 40799 is space debris in LEO originally from a launch on Wed, 16 Jun 1993 UTC launched from the Plesetsk Missile And Space Complex (PKMTR). The debris from Iridium 33, an American commercial communications satellite, has been tracked extensively since its accidental collision with the defunct Russian satellite Cosmos 2251 in 2009. This event, occurring at high speed in low Earth orbit (LEO), generated thousands of pieces of space debris, significantly increasing the risk of further collisions. The Iridium 33 debris cloud has impacted space traffic management and orbital debris mitigation strategies, making it a subject of ongoing study in space situational awareness.

Loading next visibility...
Identifier
40799, 1993-036BWC
Orbit
LEO
Country
Flag of CISCIS
Related business
Manufacturer
Unknown
Mission
Spacecraft
Bus & Motor
Unknown
Mass
Unknown
Launch date (UTC)
1993-06-16 (33 years ago)
Launch vehicle
Unknown
Launch site
Plesetsk Missile And Space Complex (PKMTR)
Object type
Payload
Rocket body
Debris
Shape & HBR
Unknown shape, 0.1 m
Radar Cross Section
Small (<0.1 m²)

Expand to show TLE details & history
Last TLE update: 1 day ago

TLE from 1 day ago
0 COSMOS 2251 DEB
1 40799U 93036BWC 26144.21269517  .00004115  00000-0  30353-3 0  9998
2 40799  73.9238 127.0601 0115256 330.1581  29.3063 14.98437792524098
Epoch: 2026-05-24T05:06Z
TLE epoch observation values (Epoch: 2026-05-24T05:06:16.862Z)
Latitude
0.00002°
Longitude
168.67177°
Altitude
504.766 km
Speed
7.65 km/s
True Right ascension
08h 28m 14s
True Declination
0° 00' 00"
Sunlit
Object was in daylight at epoch
Visualization orbit readout
Latitude
Unknown
Longitude
Unknown
Altitude
Unknown
Speed
Unknown
Apparent Right ascension
Unknown
Apparent Declination
Unknown
Sunlit
N/A
Visualization observer readout
Local Sidereal Time
22:09:51
Azimuth
Unknown
Elevation
Unknown
Doppler factor
Unknown
Orbital elements
Apogee altitude
649.361 km
Perigee altitude
489.214 km
Semi-major axis
6,947.424 km
Eccentricity
0.01153
Inclination
73.9238°
RAAN
127.0601°
Arg. of periapsis
330.1581°
True anomaly
29.96098°
Mean anomaly
29.3063°
Eccentric anomaly
29.63281°
Mean motion
3.74807 °/min
Orbital period
96.05 mins
BSTAR
0.00030353
Loading maneuver chart data...
Computing Atmospheric mass density...
Loading historical data...
Loading historical data...
Loading historical data...
Loading historical data...
Loading historical data...
Loading historical data...
Loading historical data...

Documentation

Showing up to 5 results
|